When you browse on this site, cookies collect data to enhance your experience and personalize the content and advertising you see.
Visit our Privacy Policy to learn more. By continuing to use the site, you agree to this use of cookies and data.
  • In United Kingdom
  • List of Countries
  • For 7 days
  • Water Temperature
  • Satellite Maps
  • Weather Map
  • Weather Widgets
  • user-avatar
    Login

    Hourly Weather Korhogo

    Today, 23 April, Tuesday

    Time Temperature Precipitation Wind Pressure Humidity
    00:00 +30°C° 0.6 mm 1 mps 723 mmHg 62%
    01:00 +30°C° 0.1 mm 2 mps 722 mmHg 65%
    02:00 +29°C° 0.1 mm 3 mps 722 mmHg 69%
    03:00 +29°C° 0.1 mm 4 mps 722 mmHg 73%
    04:00 +28°C° 0 mm 3 mps 722 mmHg 75%
    05:00 +28°C° 0 mm 3 mps 722 mmHg 76%
    06:00 +27°C° 0 mm 3 mps 723 mmHg 78%
    07:00 +28°C° 0 mm 3 mps 723 mmHg 74%
    08:00 +29°C° 0 mm 3 mps 724 mmHg 70%
    09:00 +30°C° 0 mm 3 mps 725 mmHg 66%
    10:00 +31°C° 0 mm 3 mps 725 mmHg 65%
    11:00 +31°C° 0 mm 3 mps 724 mmHg 63%
    12:00 +31°C° 0 mm 3 mps 724 mmHg 61%
    13:00 +35°C° 0 mm 2 mps 724 mmHg 53%
    14:00 +37°C° 0 mm 2 mps 723 mmHg 45%
    15:00 +39°C° 0 mm 2 mps 723 mmHg 36%
    16:00 +39°C° 0 mm 2 mps 723 mmHg 38%
    17:00 +38°C° 0 mm 2 mps 722 mmHg 39%
    18:00 +37°C° 0 mm 2 mps 722 mmHg 41%
    19:00 +36°C° 0 mm 2 mps 722 mmHg 46%
    20:00 +34°C° 0 mm 2 mps 722 mmHg 51%
    21:00 +32°C° 0 mm 2 mps 722 mmHg 56%
    22:00 +31°C° 0 mm 2 mps 723 mmHg 57%
    23:00 +31°C° 0 mm 3 mps 723 mmHg 59%

    Tomorrow, 24 April, Wednesday

    Time Temperature Precipitation Wind Pressure Humidity
    00:00 +31°C° 0 mm 3 mps 724 mmHg 61%
    01:00 +30°C° 0 mm 3 mps 724 mmHg 63%
    02:00 +30°C° 0 mm 3 mps 723 mmHg 65%
    03:00 +29°C° 0 mm 3 mps 723 mmHg 67%
    04:00 +29°C° 0 mm 3 mps 723 mmHg 70%
    05:00 +28°C° 0 mm 3 mps 723 mmHg 73%
    06:00 +28°C° 0 mm 3 mps 723 mmHg 76%
    07:00 +29°C° 0 mm 3 mps 724 mmHg 71%
    08:00 +31°C° 0 mm 3 mps 725 mmHg 65%
    09:00 +33°C° 0 mm 3 mps 725 mmHg 60%
    10:00 +35°C° 0 mm 3 mps 725 mmHg 52%
    11:00 +37°C° 0 mm 3 mps 725 mmHg 45%
    12:00 +39°C° 0 mm 2 mps 725 mmHg 38%
    13:00 +39°C° 0 mm 2 mps 724 mmHg 36%
    14:00 +40°C° 0 mm 2 mps 724 mmHg 34%
    15:00 +40°C° 0 mm 1 mps 723 mmHg 32%
    16:00 +39°C° 0 mm 1 mps 723 mmHg 35%
    17:00 +37°C° 0 mm 1 mps 723 mmHg 37%
    18:00 +36°C° 0 mm 1 mps 723 mmHg 40%
    19:00 +35°C° 0.1 mm 1 mps 723 mmHg 43%
    20:00 +34°C° 0.1 mm 1 mps 724 mmHg 46%
    21:00 +33°C° 0.1 mm 1 mps 724 mmHg 49%
    22:00 +32°C° 0.7 mm 2 mps 725 mmHg 57%
    23:00 +31°C° 0.7 mm 3 mps 725 mmHg 64%

    Day after tomorrow, 25 April, Thursday

    Time Temperature Precipitation Wind Pressure Humidity
    00:00 +29°C° 0.7 mm 4 mps 725 mmHg 72%
    01:00 +29°C° 0 mm 4 mps 725 mmHg 75%
    02:00 +28°C° 0 mm 3 mps 724 mmHg 78%
    03:00 +28°C° 0 mm 3 mps 724 mmHg 80%
    04:00 +28°C° 0 mm 2 mps 724 mmHg 82%
    05:00 +27°C° 0 mm 2 mps 724 mmHg 83%
    06:00 +27°C° 0 mm 2 mps 724 mmHg 85%
    07:00 +28°C° 0 mm 2 mps 725 mmHg 79%
    08:00 +30°C° 0 mm 2 mps 726 mmHg 73%
    09:00 +31°C° 0 mm 3 mps 726 mmHg 68%
    10:00 +32°C° 0 mm 2 mps 726 mmHg 65%
    11:00 +32°C° 0 mm 2 mps 726 mmHg 62%
    12:00 +34°C° 0 mm 2 mps 726 mmHg 59%
    13:00 +34°C° 0 mm 2 mps 725 mmHg 59%
    14:00 +34°C° 0 mm 2 mps 724 mmHg 58%
    15:00 +34°C° 0 mm 2 mps 723 mmHg 58%
    16:00 +33°C° 0 mm 1 mps 723 mmHg 56%
    17:00 +34°C° 0 mm 1 mps 723 mmHg 53%
    18:00 +33°C° 0 mm 0 mps 723 mmHg 51%
    19:00 +31°C° 0.4 mm 0 mps 724 mmHg 55%
    20:00 +30°C° 0.4 mm 0 mps 724 mmHg 59%
    21:00 +29°C° 0.4 mm 0 mps 725 mmHg 63%
    22:00 +30°C° 0.4 mm 1 mps 725 mmHg 67%
    23:00 +30°C° 0.4 mm 2 mps 725 mmHg 70%

    26 April, Friday

    Time Temperature Precipitation Wind Pressure Humidity
    00:00 +29°C° 0.4 mm 2 mps 725 mmHg 74%
    01:00 +29°C° 0.1 mm 2 mps 725 mmHg 76%
    02:00 +28°C° 0.1 mm 2 mps 724 mmHg 78%
    03:00 +28°C° 0.1 mm 2 mps 724 mmHg 81%
    04:00 +28°C° 0 mm 2 mps 724 mmHg 82%
    05:00 +27°C° 0 mm 2 mps 724 mmHg 84%
    06:00 +27°C° 0 mm 2 mps 724 mmHg 86%
    07:00 +29°C° 0 mm 2 mps 725 mmHg 78%
    08:00 +30°C° 0 mm 2 mps 725 mmHg 70%
    09:00 +33°C° 0 mm 3 mps 726 mmHg 62%
    10:00 +35°C° 0 mm 2 mps 725 mmHg 54%
    11:00 +37°C° 0 mm 2 mps 725 mmHg 46%
    12:00 +40°C° 0 mm 2 mps 725 mmHg 38%
    13:00 +41°C° 0 mm 2 mps 724 mmHg 35%
    14:00 +42°C° 0 mm 1 mps 723 mmHg 31%
    15:00 +43°C° 0 mm 1 mps 722 mmHg 28%
    16:00 +41°C° 0 mm 1 mps 722 mmHg 30%
    17:00 +40°C° 0 mm 2 mps 722 mmHg 33%
    18:00 +39°C° 0 mm 2 mps 722 mmHg 36%
    19:00 +37°C° 0 mm 2 mps 723 mmHg 40%
    20:00 +36°C° 0 mm 3 mps 723 mmHg 44%
    21:00 +35°C° 0 mm 3 mps 724 mmHg 48%
    22:00 +34°C° 0 mm 3 mps 724 mmHg 52%
    23:00 +34°C° 0 mm 4 mps 724 mmHg 56%

    27 April, Saturday

    Time Temperature Precipitation Wind Pressure Humidity
    00:00 +33°C° 0 mm 4 mps 723 mmHg 59%
    01:00 +32°C° 0.7 mm 4 mps 723 mmHg 65%
    02:00 +30°C° 0.7 mm 3 mps 723 mmHg 71%
    03:00 +29°C° 0.7 mm 3 mps 723 mmHg 76%
    04:00 +28°C° 3.5 mm 3 mps 724 mmHg 78%
    05:00 +28°C° 3.5 mm 2 mps 724 mmHg 79%
    06:00 +28°C° 3.5 mm 2 mps 724 mmHg 80%
    07:00 +29°C° 0 mm 3 mps 725 mmHg 75%
    08:00 +30°C° 0 mm 3 mps 725 mmHg 71%
    09:00 +32°C° 0 mm 4 mps 725 mmHg 66%
    10:00 +34°C° 0 mm 3 mps 725 mmHg 58%
    11:00 +36°C° 0 mm 3 mps 725 mmHg 50%
    12:00 +38°C° 0 mm 3 mps 724 mmHg 41%
    13:00 +39°C° 0 mm 2 mps 723 mmHg 40%
    14:00 +39°C° 0 mm 2 mps 723 mmHg 38%
    15:00 +40°C° 0 mm 2 mps 722 mmHg 36%
    16:00 +39°C° 0 mm 2 mps 722 mmHg 40%
    17:00 +38°C° 0 mm 2 mps 722 mmHg 43%
    18:00 +36°C° 0 mm 2 mps 722 mmHg 47%
    19:00 +36°C° 0 mm 2 mps 722 mmHg 49%
    20:00 +35°C° 0 mm 2 mps 723 mmHg 52%
    21:00 +34°C° 0 mm 2 mps 724 mmHg 54%
    22:00 +32°C° 0 mm 2 mps 724 mmHg 58%
    23:00 +33°C° 0 mm 3 mps 723 mmHg 61%

    28 April, Sunday

    Time Temperature Precipitation Wind Pressure Humidity
    00:00 +32°C° 0 mm 4 mps 723 mmHg 65%
    01:00 +30°C° 0 mm 4 mps 723 mmHg 68%
    02:00 +30°C° 0 mm 4 mps 723 mmHg 71%
    03:00 +29°C° 0 mm 4 mps 722 mmHg 73%
    04:00 +29°C° 0 mm 4 mps 723 mmHg 75%
    05:00 +28°C° 0 mm 3 mps 723 mmHg 77%
    06:00 +28°C° 0 mm 3 mps 723 mmHg 78%
    07:00 +29°C° 0 mm 3 mps 724 mmHg 73%
    08:00 +30°C° 0 mm 3 mps 725 mmHg 69%
    09:00 +33°C° 0 mm 4 mps 725 mmHg 64%
    10:00 +34°C° 0 mm 3 mps 725 mmHg 58%
    11:00 +36°C° 0 mm 3 mps 725 mmHg 51%
    12:00 +38°C° 0 mm 3 mps 725 mmHg 45%
    13:00 +39°C° 0 mm 3 mps 724 mmHg 43%
    14:00 +39°C° 0 mm 2 mps 723 mmHg 40%
    15:00 +40°C° 0 mm 2 mps 722 mmHg 38%
    16:00 +39°C° 0 mm 2 mps 722 mmHg 40%
    17:00 +38°C° 0 mm 2 mps 723 mmHg 43%
    18:00 +37°C° 0 mm 2 mps 723 mmHg 45%
    19:00 +36°C° 0 mm 2 mps 723 mmHg 49%
    20:00 +35°C° 0 mm 2 mps 723 mmHg 53%
    21:00 +34°C° 0 mm 3 mps 724 mmHg 57%
    22:00 +33°C° 0 mm 3 mps 724 mmHg 60%
    23:00 +33°C° 0 mm 3 mps 724 mmHg 62%
    Show more